Regional Weather Roundup
Issued by NWS

Home | Current Version | Previous Version | Text Only | Print | Product List | Glossary Off
Versions: 1 2 3 4 5 6 7 8 9 10 11 12 13 14 15 16 17 18 19 20 21 22 23 24 25 26 27 28 29 30 31 32 33 34 35 36 37 38 39 40 41 42 43 44 45 46 47 48 49 50

000
ASUS45 KPSR 250500
RWRAZ

PRELIMINARY ARIZONA REGIONAL HOURLY WEATHER ROUNDUP
NATIONAL WEATHER SERVICE PHOENIX AZ
1000 PM MST FRI OCT 24 2014

NOTE: FAIR INDICATES FEW OR NO CLOUDS BELOW 12,000 FEET WITH NO
SIGNIFICANT WEATHER AND/OR OBSTRUCTIONS TO VISIBILITY.

AZZ001>003-036-250600-
NORTHWEST ARIZONA

CITY           SKY/WX    TMP DP  RH WIND       PRES   REMARKS
KINGMAN        CLEAR     60  38  43 SE8       30.13R
$$

AZZ004>008-015-016-018-250600-
NORTH CENTRAL ARIZONA

CITY           SKY/WX    TMP DP  RH WIND       PRES   REMARKS
GRAND CANYON   CLEAR     38  22  52 CALM      30.36R
PRESCOTT       CLEAR     57  40  52 S7        30.26R
FLAGSTAFF      CLEAR     42  29  59 CALM      30.39R
PAYSON         CLEAR     59  41  51 N3        30.29S
PAGE           CLEAR     62  36  37 CALM      30.19R
$$

AZZ009>014-017-250600-
NORTHEAST ARIZONA

CITY           SKY/WX    TMP DP  RH WIND       PRES   REMARKS
WINSLOW        NOT AVBL
SAINT JOHNS    CLEAR     58  40  51 S6        30.29R
WINDOW ROCK    CLEAR     46  26  45 CALM      30.38R
$$

AZZ023-250600-
GREATER PHOENIX AREA

CITY           SKY/WX    TMP DP  RH WIND       PRES   REMARKS
PHOENIX        CLEAR     82  52  35 E6        29.98R
LUKE AFB       CLEAR    N/A N/A N/A N6          N/A
DEER VALLEY    CLEAR     77  46  33 CALM      30.00R
SCOTTSDALE     CLEAR     79  47  32 CALM      30.02R
MESA-GATEWAY   CLEAR     72  52  49 E6        30.02R
$$

AZZ027-028-250600-
SOUTHWEST MARICOPA COUNTY AND PINAL COUNTY

CITY           SKY/WX    TMP DP  RH WIND       PRES   REMARKS
CASA GRANDE    CLEAR     73  46  38 CALM      30.02R
$$

AZZ503-504-507>509-250600-
SOUTHEAST ARIZONA

CITY           SKY/WX    TMP DP  RH WIND       PRES   REMARKS
TUCSON         CLEAR     75  47  36 S6        30.11R
DAVIS-MONTHAN  CLEAR     71  47  43 S7        30.10R
NOGALES        CLEAR     64  46  52 NE5       30.19R
SIERRA VISTA   CLEAR     68  45  42 SW10      30.24R
SAFFORD        CLEAR     65  48  54 SE3       30.13R
$$

AZZ020-021-025-026-031-250600-
SOUTHWEST ARIZONA

CITY           SKY/WX    TMP DP  RH WIND       PRES   REMARKS
YUMA           NOT AVBL
$$

CAZ031-033-041-043-047-048-061-250600-
SOUTHERN CALIFORNIA

CITY           SKY/WX    TMP DP  RH WIND       PRES   REMARKS
DOWNTOWN L.A.  CLEAR     68  59  73 CALM      29.98R
L.A. AIRPORT   CLEAR     68  66  93 W7        29.99R
SAN DIEGO      CLEAR     72  66  81 CALM      29.99R
BURBANK        CLEAR     74  53  48 E5        29.99R
ONTARIO        CLEAR     75  30  19 CALM      30.01R
RIVERSIDE      CLEAR     71  36  27 CALM      30.01R
PALM SPRINGS   CLEAR     81  47  30 NW3       29.96R
EL CENTRO NAS  CLEAR     76  45  33 NE3       29.90S
IMPERIAL       CLEAR     80  50  34 NE3       29.90R
BLYTHE         CLEAR     76  44  32 NW3       29.93R
$$

NVZ020-UTZ003-250600-
SOUTHERN NEVADA-UTAH

CITY           SKY/WX    TMP DP  RH WIND       PRES   REMARKS
LAS VEGAS      NOT AVBL
SALT LAKE CITY CLEAR     58  31  35 SE10      30.09R
$$

NMZ009-TXZ055-250600-
NEW MEXICO-WEST TEXAS

CITY           SKY/WX    TMP DP  RH WIND       PRES   REMARKS
ALBUQUERQUE    CLEAR     56  37  49 E6        30.29R
EL PASO        CLEAR     66  49  54 CALM      30.20S
$$


........................KEY........................
SKY/WX - SKY CONDITION/WEATHER
TMP    - TEMPERATURE IN FAHRENHEIT
DP     - DEW POINT IN FAHRENHEIT
RH     - RELATIVE HUMIDITY IN PERCENT
WIND   - DIRECTION AND SPEED IN MILES PER HOUR (MPH)
VRB    - VARIABLE WIND DIRECTION
PRES   - MEAN SEA LEVEL PRESSURE IN INCHES OF MERCURY
         F - FALLING PRESSURE   R - RISING PRESSURE
         S - STEADY PRESSURE
VSB    - VISIBILITY IN MILES
HX     - HEAT INDEX IN FAHRENHEIT
WCI    - WIND CHILL INDEX IN FAHRENHEIT
TC     - TEMPERATURE IN CELSIUS WHICH IS ALSO KNOWN AS
         TEMPERATURE IN CENTIGRADE
AFB    - AIR FORCE BASE
         LUKE AFB IS LUKE AIR FORCE BASE
         DAVIS-MONTHAN IS DAVIS-MONTHAN AIR FORCE BASE
NAS    - NAVAL AIR STATION
         EL CENTRO NAS IS EL CENTRO NAVAL AIR STATION
N/A    - NOT AVAILABLE



USA.gov is the U.S. government's official web portal to all federal, state and local government web resources and services.